Year,Month,Day,Hour,Minute,Value (Times are PST for temperature in C)
2017,09,22,00,00,6.90
2017,09,22,00,01,6.90
2017,09,22,00,02,6.90
2017,09,22,00,03,6.90
2017,09,22,00,04,6.90
2017,09,22,00,05,6.90
2017,09,22,00,06,6.90
2017,09,22,00,07,6.90
2017,09,22,00,08,6.90
2017,09,22,00,09,6.90
2017,09,22,00,10,6.90
2017,09,22,00,11,6.90
2017,09,22,00,12,6.90
2017,09,22,00,13,6.90
2017,09,22,00,14,6.90
2017,09,22,00,15,6.90
2017,09,22,00,16,6.90
2017,09,22,00,17,6.80
2017,09,22,00,18,6.80
2017,09,22,00,19,6.80
2017,09,22,00,20,6.80
2017,09,22,00,21,6.80
2017,09,22,00,22,6.80
2017,09,22,00,23,6.80
2017,09,22,00,24,6.70
2017,09,22,00,25,6.70
2017,09,22,00,26,6.70
2017,09,22,00,27,6.70
2017,09,22,00,28,6.70
2017,09,22,00,29,6.60
2017,09,22,00,30,6.60
2017,09,22,00,31,6.60
2017,09,22,00,32,6.60
2017,09,22,00,33,6.50
2017,09,22,00,34,6.50
2017,09,22,00,35,6.50
2017,09,22,00,36,6.50
2017,09,22,00,37,6.50
2017,09,22,00,38,6.40
2017,09,22,00,39,6.40
2017,09,22,00,40,6.40
2017,09,22,00,41,6.40
2017,09,22,00,42,6.40
2017,09,22,00,43,6.40
2017,09,22,00,44,6.40
2017,09,22,00,45,6.40
2017,09,22,00,46,6.40
2017,09,22,00,47,6.30
2017,09,22,00,48,6.30
2017,09,22,00,49,6.30
2017,09,22,00,50,6.30
2017,09,22,00,51,6.20
2017,09,22,00,52,6.20
2017,09,22,00,53,6.20
2017,09,22,00,54,6.20
2017,09,22,00,55,6.20
2017,09,22,00,56,6.20
2017,09,22,00,57,6.20
2017,09,22,00,58,6.10
2017,09,22,00,59,6.10
2017,09,22,01,00,6.10
2017,09,22,01,01,6.10
2017,09,22,01,02,6.10
2017,09,22,01,03,6.10
2017,09,22,01,04,6.10
2017,09,22,01,05,6.10
2017,09,22,01,06,6.10
2017,09,22,01,07,6.10
2017,09,22,01,08,6.10
2017,09,22,01,09,6.10
2017,09,22,01,10,6.10
2017,09,22,01,11,6.10
2017,09,22,01,12,6.10
2017,09,22,01,13,6.10
2017,09,22,01,14,6.00
2017,09,22,01,15,6.00
2017,09,22,01,16,5.90
2017,09,22,01,17,5.90
2017,09,22,01,18,5.90
2017,09,22,01,19,5.90
2017,09,22,01,20,5.90
2017,09,22,01,21,5.90
2017,09,22,01,22,5.90
2017,09,22,01,23,5.90
2017,09,22,01,24,5.90
2017,09,22,01,25,5.90
2017,09,22,01,26,5.80
2017,09,22,01,27,5.80
2017,09,22,01,28,5.80
2017,09,22,01,29,5.80
2017,09,22,01,30,5.80
2017,09,22,01,31,5.80
2017,09,22,01,32,5.80
2017,09,22,01,33,5.80
2017,09,22,01,34,5.80
2017,09,22,01,35,5.70
2017,09,22,01,36,5.70
2017,09,22,01,37,5.70
2017,09,22,01,38,5.70
2017,09,22,01,39,5.70
2017,09,22,01,40,5.70
2017,09,22,01,41,5.70
2017,09,22,01,42,5.70
2017,09,22,01,43,5.60
2017,09,22,01,44,5.60
2017,09,22,01,45,5.60
2017,09,22,01,46,5.60
2017,09,22,01,47,5.60
2017,09,22,01,48,5.60
2017,09,22,01,49,5.60
2017,09,22,01,50,5.60
2017,09,22,01,51,5.60
2017,09,22,01,52,5.60
2017,09,22,01,53,5.50
2017,09,22,01,54,5.50
2017,09,22,01,55,5.50
2017,09,22,01,56,5.50
2017,09,22,01,57,5.40
2017,09,22,01,58,5.40
2017,09,22,01,59,5.40
2017,09,22,02,00,5.40
2017,09,22,02,01,5.40
2017,09,22,02,02,5.40
2017,09,22,02,03,5.40
2017,09,22,02,04,5.40
2017,09,22,02,05,5.40
2017,09,22,02,06,5.40
2017,09,22,02,07,5.40
2017,09,22,02,08,5.40
2017,09,22,02,09,5.30
2017,09,22,02,10,5.30
2017,09,22,02,11,5.30
2017,09,22,02,12,5.30
2017,09,22,02,13,5.30
2017,09,22,02,14,5.30
2017,09,22,02,15,5.30
2017,09,22,02,16,5.30
2017,09,22,02,17,5.30
2017,09,22,02,18,5.30
2017,09,22,02,19,5.30
2017,09,22,02,20,5.20
2017,09,22,02,21,5.20
2017,09,22,02,22,5.20
2017,09,22,02,23,5.20
2017,09,22,02,24,5.20
2017,09,22,02,25,5.20
2017,09,22,02,26,5.20
2017,09,22,02,27,5.20
2017,09,22,02,28,5.20
2017,09,22,02,29,5.20
2017,09,22,02,30,5.20
2017,09,22,02,31,5.20
2017,09,22,02,32,5.20
2017,09,22,02,33,5.20
2017,09,22,02,34,5.20
2017,09,22,02,35,5.20
2017,09,22,02,36,5.20
2017,09,22,02,37,5.10
2017,09,22,02,38,5.10
2017,09,22,02,39,5.10
2017,09,22,02,40,5.10
2017,09,22,02,41,5.00
2017,09,22,02,42,5.00
2017,09,22,02,43,5.00
2017,09,22,02,44,4.90
2017,09,22,02,45,4.90
2017,09,22,02,46,4.90
2017,09,22,02,47,4.90
2017,09,22,02,48,4.90
2017,09,22,02,49,4.90
2017,09,22,02,50,4.90
2017,09,22,02,51,4.90
2017,09,22,02,52,4.90
2017,09,22,02,53,4.90
2017,09,22,02,54,4.80
2017,09,22,02,55,4.80
2017,09,22,02,56,4.80
2017,09,22,02,57,4.80
2017,09,22,02,58,4.80
2017,09,22,02,59,4.80
2017,09,22,03,00,4.80
2017,09,22,03,01,4.70
2017,09,22,03,02,4.70
2017,09,22,03,03,4.70
2017,09,22,03,04,4.70
2017,09,22,03,05,4.70
2017,09,22,03,06,4.70
2017,09,22,03,07,4.70
2017,09,22,03,08,4.70
2017,09,22,03,09,4.60
2017,09,22,03,10,4.60
2017,09,22,03,11,4.60
2017,09,22,03,12,4.60
2017,09,22,03,13,4.60
2017,09,22,03,14,4.60
2017,09,22,03,15,4.60
2017,09,22,03,16,4.60
2017,09,22,03,17,4.60
2017,09,22,03,18,4.60
2017,09,22,03,19,4.60
2017,09,22,03,20,4.60
2017,09,22,03,21,4.60
2017,09,22,03,22,4.60
2017,09,22,03,23,4.60
2017,09,22,03,24,4.60
2017,09,22,03,25,4.60
2017,09,22,03,26,4.60
2017,09,22,03,27,4.60
2017,09,22,03,28,4.50
2017,09,22,03,29,4.50
2017,09,22,03,30,4.50
2017,09,22,03,31,4.40
2017,09,22,03,32,4.40
2017,09,22,03,33,4.40
2017,09,22,03,34,4.40
2017,09,22,03,35,4.40
2017,09,22,03,36,4.40
2017,09,22,03,37,4.40
2017,09,22,03,38,4.40
2017,09,22,03,39,4.40
2017,09,22,03,40,4.30
2017,09,22,03,41,4.30
2017,09,22,03,42,4.30
2017,09,22,03,43,4.30
2017,09,22,03,44,4.30
2017,09,22,03,45,4.20
2017,09,22,03,46,4.20
2017,09,22,03,47,4.20
2017,09,22,03,48,4.20
2017,09,22,03,49,4.20
2017,09,22,03,50,4.20
2017,09,22,03,51,4.20
2017,09,22,03,52,4.20
2017,09,22,03,53,4.20
2017,09,22,03,54,4.20
2017,09,22,03,55,4.20
2017,09,22,03,56,4.20
2017,09,22,03,57,4.20
2017,09,22,03,58,4.20
2017,09,22,03,59,4.20
2017,09,22,04,00,4.20
2017,09,22,04,01,4.10
2017,09,22,04,02,4.10
2017,09,22,04,03,4.10
2017,09,22,04,04,4.00
2017,09,22,04,05,3.90
2017,09,22,04,06,3.90
2017,09,22,04,07,3.80
2017,09,22,04,08,3.80
2017,09,22,04,09,3.70
2017,09,22,04,10,3.70
2017,09,22,04,11,3.70
2017,09,22,04,12,3.70
2017,09,22,04,13,3.70
2017,09,22,04,14,3.70
2017,09,22,04,15,3.70
2017,09,22,04,16,3.70
2017,09,22,04,17,3.70
2017,09,22,04,18,3.70
2017,09,22,04,19,3.70
2017,09,22,04,20,3.70
2017,09,22,04,21,3.70
2017,09,22,04,22,3.70
2017,09,22,04,23,3.80
2017,09,22,04,24,3.80
2017,09,22,04,25,3.80
2017,09,22,04,26,3.80
2017,09,22,04,27,3.80
2017,09,22,04,28,3.80
2017,09,22,04,29,3.90
2017,09,22,04,30,3.90
2017,09,22,04,31,3.90
2017,09,22,04,32,4.00
2017,09,22,04,33,4.00
2017,09,22,04,34,4.00
2017,09,22,04,35,4.00
2017,09,22,04,36,4.00
2017,09,22,04,37,4.00
2017,09,22,04,38,4.00
2017,09,22,04,39,4.00
2017,09,22,04,40,4.10
2017,09,22,04,41,4.00
2017,09,22,04,42,4.00
2017,09,22,04,43,4.00
2017,09,22,04,44,4.00
2017,09,22,04,45,3.90
2017,09,22,04,46,3.90
2017,09,22,04,47,3.90
2017,09,22,04,48,3.80
2017,09,22,04,49,3.80
2017,09,22,04,50,3.80
2017,09,22,04,51,3.80
2017,09,22,04,52,3.70
2017,09,22,04,53,3.70
2017,09,22,04,54,3.70
2017,09,22,04,55,3.70
2017,09,22,04,56,3.70
2017,09,22,04,57,3.70
2017,09,22,04,58,3.60
2017,09,22,04,59,3.60
2017,09,22,05,00,3.60
2017,09,22,05,01,3.60
2017,09,22,05,02,3.60
2017,09,22,05,03,3.60
2017,09,22,05,04,3.60
2017,09,22,05,05,3.60
2017,09,22,05,06,3.60
2017,09,22,05,07,3.60
2017,09,22,05,08,3.60
2017,09,22,05,09,3.60
2017,09,22,05,10,3.60
2017,09,22,05,11,3.60
2017,09,22,05,12,3.60
2017,09,22,05,13,3.50
2017,09,22,05,14,3.60
2017,09,22,05,15,3.50
2017,09,22,05,16,3.50
2017,09,22,05,17,3.50
2017,09,22,05,18,3.50
2017,09,22,05,19,3.50
2017,09,22,05,20,3.50
2017,09,22,05,21,3.50
2017,09,22,05,22,3.50
2017,09,22,05,23,3.50
2017,09,22,05,24,3.50
2017,09,22,05,25,3.40
2017,09,22,05,26,3.40
2017,09,22,05,27,3.40
2017,09,22,05,28,3.40
2017,09,22,05,29,3.30
2017,09,22,05,30,3.30
2017,09,22,05,31,3.30
2017,09,22,05,32,3.30
2017,09,22,05,33,3.30
2017,09,22,05,34,3.30
2017,09,22,05,35,3.30
2017,09,22,05,36,3.30
2017,09,22,05,37,3.30
2017,09,22,05,38,3.20
2017,09,22,05,39,3.20
2017,09,22,05,40,3.10
2017,09,22,05,41,3.10
2017,09,22,05,42,3.00
2017,09,22,05,43,3.00
2017,09,22,05,44,3.00
2017,09,22,05,45,2.90
2017,09,22,05,46,2.90
2017,09,22,05,47,2.90
2017,09,22,05,48,2.90
2017,09,22,05,49,2.90
2017,09,22,05,50,2.90
2017,09,22,05,51,2.90
2017,09,22,05,52,2.90
2017,09,22,05,53,2.90
2017,09,22,05,54,2.90
2017,09,22,05,55,2.90
2017,09,22,05,56,3.00
2017,09,22,05,57,3.00
2017,09,22,05,58,3.00
2017,09,22,05,59,3.10
2017,09,22,06,00,3.10
2017,09,22,06,01,3.10
2017,09,22,06,02,3.10
2017,09,22,06,03,3.10
2017,09,22,06,04,3.10
2017,09,22,06,05,3.10
2017,09,22,06,06,3.10
2017,09,22,06,07,3.10
2017,09,22,06,08,3.10
2017,09,22,06,09,3.10
2017,09,22,06,10,3.10
2017,09,22,06,11,3.10
2017,09,22,06,12,3.10
2017,09,22,06,13,3.00
2017,09,22,06,14,3.00
2017,09,22,06,15,3.00
2017,09,22,06,16,3.00
2017,09,22,06,17,2.90
2017,09,22,06,18,2.90
2017,09,22,06,19,2.90
2017,09,22,06,20,2.90
2017,09,22,06,21,2.90
2017,09,22,06,22,2.90
2017,09,22,06,23,2.90
2017,09,22,06,24,2.90
2017,09,22,06,25,2.90
2017,09,22,06,26,2.90
2017,09,22,06,27,2.90
2017,09,22,06,28,2.90
2017,09,22,06,29,2.90
2017,09,22,06,30,2.90
2017,09,22,06,31,2.90
2017,09,22,06,32,2.90
2017,09,22,06,33,2.90
2017,09,22,06,34,2.90
2017,09,22,06,35,2.90
2017,09,22,06,36,2.90
2017,09,22,06,37,2.90
2017,09,22,06,38,2.90
2017,09,22,06,39,2.90
2017,09,22,06,40,2.90
2017,09,22,06,41,2.90
2017,09,22,06,42,2.90
2017,09,22,06,43,2.90
2017,09,22,06,44,2.90
2017,09,22,06,45,2.90
2017,09,22,06,46,2.90
2017,09,22,06,47,2.90
2017,09,22,06,48,2.90
2017,09,22,06,49,2.90
2017,09,22,06,50,2.90
2017,09,22,06,51,2.90
2017,09,22,06,52,2.80
2017,09,22,06,53,2.80
2017,09,22,06,54,2.80
2017,09,22,06,55,2.80
2017,09,22,06,56,2.80
2017,09,22,06,57,2.80
2017,09,22,06,58,2.80
2017,09,22,06,59,2.80
2017,09,22,07,00,2.80
2017,09,22,07,01,2.80
2017,09,22,07,02,2.80
2017,09,22,07,03,2.80
2017,09,22,07,04,2.80
2017,09,22,07,05,2.70
2017,09,22,07,06,2.70
2017,09,22,07,07,2.70
2017,09,22,07,08,2.70
2017,09,22,07,09,2.70
2017,09,22,07,10,2.60
2017,09,22,07,11,2.60
2017,09,22,07,12,2.60
2017,09,22,07,13,2.50
2017,09,22,07,14,2.50
2017,09,22,07,15,2.50
2017,09,22,07,16,2.50
2017,09,22,07,17,2.50
2017,09,22,07,18,2.50
2017,09,22,07,19,2.50
2017,09,22,07,20,2.50
2017,09,22,07,21,2.50
2017,09,22,07,22,2.50
2017,09,22,07,23,2.50
2017,09,22,07,24,2.50
2017,09,22,07,25,2.50
2017,09,22,07,26,2.50
2017,09,22,07,27,2.40
2017,09,22,07,28,2.40
2017,09,22,07,29,2.40
2017,09,22,07,30,2.40
2017,09,22,07,31,2.40
2017,09,22,07,32,2.40
2017,09,22,07,33,2.40
2017,09,22,07,34,2.40
2017,09,22,07,35,2.40
2017,09,22,07,36,2.40
2017,09,22,07,37,2.40
2017,09,22,07,38,2.50
2017,09,22,07,39,2.50
2017,09,22,07,40,2.50
2017,09,22,07,41,2.50
2017,09,22,07,42,2.50
2017,09,22,07,43,2.50
2017,09,22,07,44,2.60
2017,09,22,07,45,2.60
2017,09,22,07,46,2.60
2017,09,22,07,47,2.60
2017,09,22,07,48,2.60
2017,09,22,07,49,2.60
2017,09,22,07,50,2.70
2017,09,22,07,51,2.70
2017,09,22,07,52,2.70
2017,09,22,07,53,2.70
2017,09,22,07,54,2.80
2017,09,22,07,55,2.80
2017,09,22,07,56,2.80
2017,09,22,07,57,2.80
2017,09,22,07,58,2.80
2017,09,22,07,59,2.90
2017,09,22,08,00,2.90
2017,09,22,08,01,2.90
2017,09,22,08,02,2.90
2017,09,22,08,03,2.90
2017,09,22,08,04,2.90
2017,09,22,08,05,2.90
2017,09,22,08,06,2.90
2017,09,22,08,07,2.90
2017,09,22,08,08,2.90
2017,09,22,08,09,2.90
2017,09,22,08,10,3.00
2017,09,22,08,11,3.00
2017,09,22,08,12,3.00
2017,09,22,08,13,3.10
2017,09,22,08,14,3.10
2017,09,22,08,15,3.20
2017,09,22,08,16,3.20
2017,09,22,08,17,3.30
2017,09,22,08,18,3.30
2017,09,22,08,19,3.30
2017,09,22,08,20,3.40
2017,09,22,08,21,3.40
2017,09,22,08,22,3.40
2017,09,22,08,23,3.50
2017,09,22,08,24,3.50
2017,09,22,08,25,3.60
2017,09,22,08,26,3.60
2017,09,22,08,27,3.70
2017,09,22,08,28,3.70
2017,09,22,08,29,3.80
2017,09,22,08,30,3.80
2017,09,22,08,31,3.90
2017,09,22,08,32,4.00
2017,09,22,08,33,4.00
2017,09,22,08,34,4.10
2017,09,22,08,35,4.20
2017,09,22,08,36,4.20
2017,09,22,08,37,4.30
2017,09,22,08,38,4.30
2017,09,22,08,39,4.40
2017,09,22,08,40,4.50
2017,09,22,08,41,4.60
2017,09,22,08,42,4.70
2017,09,22,08,43,4.80
2017,09,22,08,44,4.90
2017,09,22,08,45,5.00
2017,09,22,08,46,5.00
2017,09,22,08,47,5.10
2017,09,22,08,48,5.20
2017,09,22,08,49,5.30
2017,09,22,08,50,5.40
2017,09,22,08,51,5.50
2017,09,22,08,52,5.60
2017,09,22,08,53,5.70
2017,09,22,08,54,5.80
2017,09,22,08,55,5.90
2017,09,22,08,56,6.00
2017,09,22,08,57,6.00
2017,09,22,08,58,6.10
2017,09,22,08,59,6.20
2017,09,22,09,00,6.30
2017,09,22,09,01,6.30
2017,09,22,09,02,6.40
2017,09,22,09,03,6.50
2017,09,22,09,04,6.60
2017,09,22,09,05,6.80
2017,09,22,09,06,6.80
2017,09,22,09,07,6.90
2017,09,22,09,08,7.00
2017,09,22,09,09,7.10
2017,09,22,09,10,7.20
2017,09,22,09,11,7.30
2017,09,22,09,12,7.40
2017,09,22,09,13,7.50
2017,09,22,09,14,7.60
2017,09,22,09,15,7.70
2017,09,22,09,16,7.80
2017,09,22,09,17,7.90
2017,09,22,09,18,8.00
2017,09,22,09,19,8.10
2017,09,22,09,20,8.20
2017,09,22,09,21,8.30
2017,09,22,09,22,8.40
2017,09,22,09,23,8.50
2017,09,22,09,24,8.60
2017,09,22,09,25,8.70
2017,09,22,09,26,8.80
2017,09,22,09,27,8.90
2017,09,22,09,28,9.00
2017,09,22,09,29,9.10
2017,09,22,09,30,9.20
2017,09,22,09,31,9.30
2017,09,22,09,32,9.40
2017,09,22,09,33,9.50
2017,09,22,09,34,9.60
2017,09,22,09,35,9.70
2017,09,22,09,36,9.80
2017,09,22,09,37,9.80
2017,09,22,09,38,9.90
2017,09,22,09,39,10.00
2017,09,22,09,40,10.00
2017,09,22,09,41,10.10
2017,09,22,09,42,10.20
2017,09,22,09,43,10.20
2017,09,22,09,44,10.30
2017,09,22,09,45,10.30
2017,09,22,09,46,10.40
2017,09,22,09,47,10.40
2017,09,22,09,48,10.40
2017,09,22,09,49,10.50
2017,09,22,09,50,10.60
2017,09,22,09,51,10.60
2017,09,22,09,52,10.70
2017,09,22,09,53,10.70
2017,09,22,09,54,10.80
2017,09,22,09,55,10.80
2017,09,22,09,56,10.90
2017,09,22,09,57,11.00
2017,09,22,09,58,11.00
2017,09,22,09,59,11.10
2017,09,22,10,00,11.20
2017,09,22,10,01,11.30
2017,09,22,10,02,11.30
2017,09,22,10,03,11.40
2017,09,22,10,04,11.50
2017,09,22,10,05,11.60
2017,09,22,10,06,11.70
2017,09,22,10,07,11.80
2017,09,22,10,08,11.80
2017,09,22,10,09,11.90
2017,09,22,10,10,12.00
2017,09,22,10,11,12.10
2017,09,22,10,12,12.10
2017,09,22,10,13,12.20
2017,09,22,10,14,12.30
2017,09,22,10,15,12.40
2017,09,22,10,16,12.50
2017,09,22,10,17,12.60
2017,09,22,10,18,12.70
2017,09,22,10,19,12.80
2017,09,22,10,20,12.90
2017,09,22,10,21,13.00
2017,09,22,10,22,13.10
2017,09,22,10,23,13.20
2017,09,22,10,24,13.20
2017,09,22,10,25,13.30
2017,09,22,10,26,13.30
2017,09,22,10,27,13.30
2017,09,22,10,28,13.30
2017,09,22,10,29,13.40
2017,09,22,10,30,13.40
2017,09,22,10,31,13.40
2017,09,22,10,32,13.50
2017,09,22,10,33,13.60
2017,09,22,10,34,13.60
2017,09,22,10,35,13.70
2017,09,22,10,36,13.80
2017,09,22,10,37,13.80
2017,09,22,10,38,13.80
2017,09,22,10,39,13.90
2017,09,22,10,40,13.90
2017,09,22,10,41,14.00
2017,09,22,10,42,14.10
2017,09,22,10,43,14.10
2017,09,22,10,44,14.20
2017,09,22,10,45,14.20
2017,09,22,10,46,14.20
2017,09,22,10,47,14.30
2017,09,22,10,48,14.30
2017,09,22,10,49,14.30
2017,09,22,10,50,14.30
2017,09,22,10,51,14.40
2017,09,22,10,52,14.40
2017,09,22,10,53,14.50
2017,09,22,10,54,14.50
2017,09,22,10,55,14.60
2017,09,22,10,56,14.60
2017,09,22,10,57,14.70
2017,09,22,10,58,14.70
2017,09,22,10,59,14.80
2017,09,22,11,00,14.80
2017,09,22,11,01,14.80
2017,09,22,11,02,14.80
2017,09,22,11,03,14.90
2017,09,22,11,04,14.90
2017,09,22,11,05,15.00
2017,09,22,11,06,15.00
2017,09,22,11,07,15.10
2017,09,22,11,08,15.10
2017,09,22,11,09,15.20
2017,09,22,11,10,15.20
2017,09,22,11,11,15.30
2017,09,22,11,12,15.30
2017,09,22,11,13,15.30
2017,09,22,11,14,15.30
2017,09,22,11,15,15.30
2017,09,22,11,16,15.20
2017,09,22,11,17,15.20
2017,09,22,11,18,15.20
2017,09,22,11,19,15.30
2017,09,22,11,20,15.30
2017,09,22,11,21,15.30
2017,09,22,11,22,15.30
2017,09,22,11,23,15.40
2017,09,22,11,24,15.40
2017,09,22,11,25,15.40
2017,09,22,11,26,15.40
2017,09,22,11,27,15.40
2017,09,22,11,28,15.40
2017,09,22,11,29,15.50
2017,09,22,11,30,15.50
2017,09,22,11,31,15.50
2017,09,22,11,32,15.60
2017,09,22,11,33,15.60
2017,09,22,11,34,15.70
2017,09,22,11,35,15.70
2017,09,22,11,36,15.70
2017,09,22,11,37,15.70
2017,09,22,11,38,15.70
2017,09,22,11,39,15.70
2017,09,22,11,40,15.70
2017,09,22,11,41,15.70
2017,09,22,11,42,15.80
2017,09,22,11,43,15.80
2017,09,22,11,44,15.80
2017,09,22,11,45,15.80
2017,09,22,11,46,15.90
2017,09,22,11,47,15.90
2017,09,22,11,48,16.00
2017,09,22,11,49,16.00
2017,09,22,11,50,16.10
2017,09,22,11,51,16.10
2017,09,22,11,52,16.10
2017,09,22,11,53,16.20
2017,09,22,11,54,16.20
2017,09,22,11,55,16.20
2017,09,22,11,56,16.30
2017,09,22,11,57,16.30
2017,09,22,11,58,16.30
2017,09,22,11,59,16.40
2017,09,22,12,00,16.40
2017,09,22,12,01,16.50
2017,09,22,12,02,16.60
2017,09,22,12,03,16.60
2017,09,22,12,04,16.70
2017,09,22,12,05,16.70
2017,09,22,12,06,16.70
2017,09,22,12,07,16.70
2017,09,22,12,08,16.70
2017,09,22,12,09,16.70
2017,09,22,12,10,16.70
2017,09,22,12,11,16.70
2017,09,22,12,12,16.80
2017,09,22,12,13,16.80
2017,09,22,12,14,16.80
2017,09,22,12,15,16.80
2017,09,22,12,16,16.70
2017,09,22,12,17,16.70
2017,09,22,12,18,16.70
2017,09,22,12,19,16.70
2017,09,22,12,20,16.70
2017,09,22,12,21,16.60
2017,09,22,12,22,16.60
2017,09,22,12,23,16.60
2017,09,22,12,24,16.60
2017,09,22,12,25,16.60
2017,09,22,12,26,16.60
2017,09,22,12,27,16.60
2017,09,22,12,28,16.60
2017,09,22,12,29,16.60
2017,09,22,12,30,16.50
2017,09,22,12,31,16.50
2017,09,22,12,32,16.50
2017,09,22,12,33,16.50
2017,09,22,12,34,16.50
2017,09,22,12,35,16.50
2017,09,22,12,36,16.50
2017,09,22,12,37,16.60
2017,09,22,12,38,16.60
2017,09,22,12,39,16.60
2017,09,22,12,40,16.60
2017,09,22,12,41,16.70
2017,09,22,12,42,16.70
2017,09,22,12,43,16.80
2017,09,22,12,44,16.80
2017,09,22,12,45,16.90
2017,09,22,12,46,16.90
2017,09,22,12,47,17.00
2017,09,22,12,48,17.00
2017,09,22,12,49,17.10
2017,09,22,12,50,17.10
2017,09,22,12,51,17.10
2017,09,22,12,52,17.20
2017,09,22,12,53,17.20
2017,09,22,12,54,17.20
2017,09,22,12,55,17.30
2017,09,22,12,56,17.30
2017,09,22,12,57,17.30
2017,09,22,12,58,17.30
2017,09,22,12,59,17.30
2017,09,22,13,00,17.30
2017,09,22,13,01,17.30
2017,09,22,13,02,17.30
2017,09,22,13,03,17.30
2017,09,22,13,04,17.30
2017,09,22,13,05,17.30
2017,09,22,13,06,17.30
2017,09,22,13,07,17.30
2017,09,22,13,08,17.40
2017,09,22,13,09,17.40
2017,09,22,13,10,17.50
2017,09,22,13,11,17.50
2017,09,22,13,12,17.60
2017,09,22,13,13,17.60
2017,09,22,13,14,17.60
2017,09,22,13,15,17.70
2017,09,22,13,16,17.70
2017,09,22,13,17,17.70
2017,09,22,13,18,17.70
2017,09,22,13,19,17.70
2017,09,22,13,20,17.70
2017,09,22,13,21,17.70
2017,09,22,13,22,17.80
2017,09,22,13,23,17.80
2017,09,22,13,24,17.80
2017,09,22,13,25,17.90
2017,09,22,13,26,17.90
2017,09,22,13,27,17.90
2017,09,22,13,28,17.90
2017,09,22,13,29,17.90
2017,09,22,13,30,17.90
2017,09,22,13,31,17.90
2017,09,22,13,32,18.00
2017,09,22,13,33,18.00
2017,09,22,13,34,18.00
2017,09,22,13,35,18.00
2017,09,22,13,36,18.10
2017,09,22,13,37,18.10
2017,09,22,13,38,18.10
2017,09,22,13,39,18.10
2017,09,22,13,40,18.10
2017,09,22,13,41,18.10
2017,09,22,13,42,18.10
2017,09,22,13,43,18.20
2017,09,22,13,44,18.20
2017,09,22,13,45,18.20
2017,09,22,13,46,18.30
2017,09,22,13,47,18.30
2017,09,22,13,48,18.30
2017,09,22,13,49,18.30
2017,09,22,13,50,18.40
2017,09,22,13,51,18.40
2017,09,22,13,52,18.40
2017,09,22,13,53,18.40
2017,09,22,13,54,18.30
2017,09,22,13,55,18.30
2017,09,22,13,56,18.30
2017,09,22,13,57,18.20
2017,09,22,13,58,18.20
2017,09,22,13,59,18.20
2017,09,22,14,00,18.30
2017,09,22,14,01,18.30
2017,09,22,14,02,18.30
2017,09,22,14,03,18.40
2017,09,22,14,04,18.40
2017,09,22,14,05,18.40
2017,09,22,14,06,18.40
2017,09,22,14,07,18.50
2017,09,22,14,08,18.50
2017,09,22,14,09,18.50
2017,09,22,14,10,18.60
2017,09,22,14,11,18.60
2017,09,22,14,12,18.70
2017,09,22,14,13,18.70
2017,09,22,14,14,18.80
2017,09,22,14,15,18.80
2017,09,22,14,16,18.80
2017,09,22,14,17,18.80
2017,09,22,14,18,18.90
2017,09,22,14,19,18.90
2017,09,22,14,20,18.90
2017,09,22,14,21,18.90
2017,09,22,14,22,18.90
2017,09,22,14,23,18.80
2017,09,22,14,24,18.80
2017,09,22,14,25,18.90
2017,09,22,14,26,18.90
2017,09,22,14,27,18.90
2017,09,22,14,28,19.00
2017,09,22,14,29,19.00
2017,09,22,14,30,19.00
2017,09,22,14,31,19.10
2017,09,22,14,32,19.10
2017,09,22,14,33,19.00
2017,09,22,14,34,19.00
2017,09,22,14,35,18.90
2017,09,22,14,36,18.90
2017,09,22,14,37,18.90
2017,09,22,14,38,18.90
2017,09,22,14,39,19.00
2017,09,22,14,40,19.00
2017,09,22,14,41,19.10
2017,09,22,14,42,19.20
2017,09,22,14,43,19.20
2017,09,22,14,44,19.10
2017,09,22,14,45,19.10
2017,09,22,14,46,19.10
2017,09,22,14,47,19.10
2017,09,22,14,48,19.10
2017,09,22,14,49,19.10
2017,09,22,14,50,19.20
2017,09,22,14,51,19.20
2017,09,22,14,52,19.20
2017,09,22,14,53,19.20
2017,09,22,14,54,19.20
2017,09,22,14,55,19.20
2017,09,22,14,56,19.20
2017,09,22,14,57,19.20
2017,09,22,14,58,19.20
2017,09,22,14,59,19.20
2017,09,22,15,00,19.20
2017,09,22,15,01,19.10
2017,09,22,15,02,19.10
2017,09,22,15,03,19.10
2017,09,22,15,04,19.10
2017,09,22,15,05,19.10
2017,09,22,15,06,19.20
2017,09,22,15,07,19.20
2017,09,22,15,08,19.10
2017,09,22,15,09,19.10
2017,09,22,15,10,19.10
2017,09,22,15,11,19.10
2017,09,22,15,12,19.10
2017,09,22,15,13,19.10
2017,09,22,15,14,19.20
2017,09,22,15,15,19.20
2017,09,22,15,16,19.20
2017,09,22,15,17,19.20
2017,09,22,15,18,19.20
2017,09,22,15,19,19.20
2017,09,22,15,20,19.20
2017,09,22,15,21,19.20
2017,09,22,15,22,19.20
2017,09,22,15,23,19.30
2017,09,22,15,24,19.30
2017,09,22,15,25,19.30
2017,09,22,15,26,19.30
2017,09,22,15,27,19.30
2017,09,22,15,28,19.40
2017,09,22,15,29,19.40
2017,09,22,15,30,19.50
2017,09,22,15,31,19.50
2017,09,22,15,32,19.60
2017,09,22,15,33,19.60
2017,09,22,15,34,19.60
2017,09,22,15,35,19.50
2017,09,22,15,36,19.50
2017,09,22,15,37,19.50
2017,09,22,15,38,19.50
2017,09,22,15,39,19.40
2017,09,22,15,40,19.40
2017,09,22,15,41,19.40
2017,09,22,15,42,19.30
2017,09,22,15,43,19.30
2017,09,22,15,44,19.30
2017,09,22,15,45,19.20
2017,09,22,15,46,19.20
2017,09,22,15,47,19.20
2017,09,22,15,48,19.30
2017,09,22,15,49,19.30
2017,09,22,15,50,19.30
2017,09,22,15,51,19.30
2017,09,22,15,52,19.30
2017,09,22,15,53,19.30
2017,09,22,15,54,19.30
2017,09,22,15,55,19.30
2017,09,22,15,56,19.30
2017,09,22,15,57,19.30
2017,09,22,15,58,19.30
2017,09,22,15,59,19.30
2017,09,22,16,00,19.30
2017,09,22,16,01,19.30
2017,09,22,16,02,19.30
2017,09,22,16,03,19.30
2017,09,22,16,04,19.30
2017,09,22,16,05,19.30
2017,09,22,16,06,19.30
2017,09,22,16,07,19.30
2017,09,22,16,08,19.40
2017,09,22,16,09,19.40
2017,09,22,16,10,19.40
2017,09,22,16,11,19.40
2017,09,22,16,12,19.40
2017,09,22,16,13,19.50
2017,09,22,16,14,19.50
2017,09,22,16,15,19.50
2017,09,22,16,16,19.60
2017,09,22,16,17,19.60
2017,09,22,16,18,19.60
2017,09,22,16,19,19.70
2017,09,22,16,20,19.70
2017,09,22,16,21,19.70
2017,09,22,16,22,19.80
2017,09,22,16,23,19.90
2017,09,22,16,24,19.90
2017,09,22,16,25,19.90
2017,09,22,16,26,20.00
2017,09,22,16,27,20.00
2017,09,22,16,28,20.00
2017,09,22,16,29,20.00
2017,09,22,16,30,20.10
2017,09,22,16,31,20.10
2017,09,22,16,32,20.10
2017,09,22,16,33,20.10
2017,09,22,16,34,20.20
2017,09,22,16,35,20.20
2017,09,22,16,36,20.20
2017,09,22,16,37,20.20
2017,09,22,16,38,20.20
2017,09,22,16,39,20.20
2017,09,22,16,40,20.20
2017,09,22,16,41,20.20
2017,09,22,16,42,20.20
2017,09,22,16,43,20.20
2017,09,22,16,44,20.30
2017,09,22,16,45,20.30
2017,09,22,16,46,20.30
2017,09,22,16,47,20.30
2017,09,22,16,48,20.30
2017,09,22,16,49,20.30
2017,09,22,16,50,20.30
2017,09,22,16,51,20.30
2017,09,22,16,52,20.30
2017,09,22,16,53,20.20
2017,09,22,16,54,20.20
2017,09,22,16,55,20.20
2017,09,22,16,56,20.20
2017,09,22,16,57,20.20
2017,09,22,16,58,20.30
2017,09,22,16,59,20.30
2017,09,22,17,00,20.30
2017,09,22,17,01,20.30
2017,09,22,17,02,20.20
2017,09,22,17,03,20.20
2017,09,22,17,04,20.20
2017,09,22,17,05,20.20
2017,09,22,17,06,20.20
2017,09,22,17,07,20.10
2017,09,22,17,08,20.10
2017,09,22,17,09,20.10
2017,09,22,17,10,20.10
2017,09,22,17,11,20.10
2017,09,22,17,12,20.10
2017,09,22,17,13,20.10
2017,09,22,17,14,20.10
2017,09,22,17,15,20.00
2017,09,22,17,16,20.00
2017,09,22,17,17,20.00
2017,09,22,17,18,19.90
2017,09,22,17,19,19.90
2017,09,22,17,20,19.80
2017,09,22,17,21,19.80
2017,09,22,17,22,19.80
2017,09,22,17,23,19.70
2017,09,22,17,24,19.70
2017,09,22,17,25,19.70
2017,09,22,17,26,19.70
2017,09,22,17,27,19.60
2017,09,22,17,28,19.60
2017,09,22,17,29,19.60
2017,09,22,17,30,19.60
2017,09,22,17,31,19.60
2017,09,22,17,32,19.60
2017,09,22,17,33,19.60
2017,09,22,17,34,19.60
2017,09,22,17,35,19.50
2017,09,22,17,36,19.50
2017,09,22,17,37,19.50
2017,09,22,17,38,19.50
2017,09,22,17,39,19.40
2017,09,22,17,40,19.40
2017,09,22,17,41,19.40
2017,09,22,17,42,19.40
2017,09,22,17,43,19.40
2017,09,22,17,44,19.40